Вернуться в каталог

COSMOS 1525

АктивенВоенныеLEO
NORAD 14614·PAYLOAD·🇷🇺 Russia

Запущен Jan 5, 1984 с Plesetsk Cosmodrome

Loading…

Ближайшие Пролёты (ближайшие 24 часа)

TLE

СвежийSource: Space-Track

Эпоха: Sep 14, 2026, 17:17 UTC

1 14614U 84001D   26257.72057999 -.00000002  00000-0  89753-4 0  9998
2 14614  74.0125   0.8663 0022297 246.0159 281.5917 12.54912505955678

Отслеживайте COSMOS 1525 в реальном времени с AllMySat

Download on the App Store